User: anonymous   Login
Location: Bushey
(51.6333°N, 0.3667°W)
Time: 17:06:52
(UTC+00:00)
Language:

SJ 16-02 - Orbit

View from above orbital plane
View from above orbital plane
View from above satellite
View from above satellite

Ground track
Ground track

The orbit data is extracted from the following two-line orbital elements,

1 41634U 16043A   21125.75402865  .00000187  00000-0  24695-4 0  9996
2 41634  75.0047 190.0431 0008814 243.9260 116.1022 14.85797992263104
Epoch (UTC): 05 May 2021 18:05:48
Eccentricity: 0.0008814
inclination: 75.0047°
perigee height: 605 km
apogee height: 617 km
right ascension of ascending node: 190.0431°
argument of perigee: 243.9260°
revolutions per day: 14.85797992
mean anomaly at epoch: 116.1022°
orbit number at epoch: 26310

The dashed part of the orbit path shows where the satellite is in the earth's shadow,  

DLR